TimeEDT,TemperatureF,Dew PointF,Humidity,Sea Level PressureIn,VisibilityMPH,Wind Direction,Wind SpeedMPH,Gust SpeedMPH,PrecipitationIn,Events,Conditions,WindDirDegrees,DateUTC
12:54 AM,57.0,54.0,89,30.09,10.0,Calm,Calm,-,N/A,,Mostly Cloudy,0,2012-09-21 04:54:00
1:54 AM,55.9,53.1,90,30.09,10.0,Calm,Calm,-,N/A,,Mostly Cloudy,0,2012-09-21 05:54:00
2:54 AM,55.0,53.1,93,30.08,10.0,Calm,Calm,-,N/A,,Scattered Clouds,0,2012-09-21 06:54:00
3:54 AM,54.0,52.0,93,30.07,10.0,Calm,Calm,-,N/A,,Partly Cloudy,0,2012-09-21 07:54:00
4:54 AM,54.0,52.0,93,30.06,10.0,Calm,Calm,-,N/A,,Partly Cloudy,0,2012-09-21 08:54:00
5:54 AM,53.1,51.1,93,30.07,10.0,Calm,Calm,-,N/A,Fog,Patches of Fog,0,2012-09-21 09:54:00
6:54 AM,53.1,51.1,93,30.07,10.0,Calm,Calm,-,N/A,,Scattered Clouds,0,2012-09-21 10:54:00
7:54 AM,55.9,52.0,87,30.08,10.0,Calm,Calm,-,N/A,,Scattered Clouds,0,2012-09-21 11:54:00
8:54 AM,62.1,55.9,80,30.07,10.0,ESE,3.5,-,N/A,,Partly Cloudy,110,2012-09-21 12:54:00
9:54 AM,68.0,55.9,65,30.07,10.0,South,5.8,-,N/A,,Scattered Clouds,170,2012-09-21 13:54:00
10:54 AM,71.1,55.9,59,30.07,10.0,SE,8.1,-,N/A,,Partly Cloudy,140,2012-09-21 14:54:00
11:54 AM,73.9,57.9,57,30.06,10.0,SE,8.1,-,N/A,,Scattered Clouds,130,2012-09-21 15:54:00
12:54 PM,75.9,59.0,56,30.05,10.0,South,6.9,-,N/A,,Scattered Clouds,180,2012-09-21 16:54:00
1:54 PM,75.9,59.0,56,30.03,10.0,SE,10.4,-,N/A,,Scattered Clouds,130,2012-09-21 17:54:00
2:54 PM,75.9,59.0,56,30.00,10.0,ESE,12.7,18.4,N/A,,Scattered Clouds,120,2012-09-21 18:54:00
3:54 PM,75.9,59.0,56,29.99,10.0,ESE,8.1,-,N/A,,Scattered Clouds,120,2012-09-21 19:54:00
4:54 PM,75.9,60.1,58,29.99,10.0,SE,5.8,-,N/A,,Scattered Clouds,140,2012-09-21 20:54:00
5:54 PM,75.0,61.0,62,29.99,10.0,Variable,4.6,-,N/A,,Scattered Clouds,0,2012-09-21 21:54:00
6:54 PM,73.0,60.1,64,29.99,10.0,SE,4.6,-,N/A,,Partly Cloudy,140,2012-09-21 22:54:00
7:54 PM,70.0,61.0,73,29.99,10.0,Calm,Calm,-,N/A,,Partly Cloudy,0,2012-09-21 23:54:00
8:54 PM,68.0,61.0,78,29.99,10.0,SSE,3.5,-,N/A,,Partly Cloudy,150,2012-09-22 00:54:00
9:54 PM,66.9,62.1,84,29.99,10.0,SSE,4.6,-,N/A,,Clear,150,2012-09-22 01:54:00
10:54 PM,66.0,61.0,84,29.98,10.0,Calm,Calm,-,N/A,,Partly Cloudy,0,2012-09-22 02:54:00
11:54 PM,64.0,61.0,90,29.96,9.0,Calm,Calm,-,N/A,,Partly Cloudy,0,2012-09-22 03:54:00